When you browse on this site, cookies collect data to enhance your experience and personalize the content and advertising you see.
Visit our Privacy Policy to learn more. By continuing to use the site, you agree to this use of cookies and data.
  • In United Kingdom
  • List of Countries
  • For 7 days
  • Water Temperature
  • Satellite Maps
  • Weather Map
  • Weather Widgets
  • user-avatar
    Login

    Hourly Weather Abertridwr

    Today, 18 February, Monday

    Time Temperature Precipitation Wind Pressure Humidity
    00:00 +7°C° 0 mm 6 mps 748 mmHg 87%
    01:00 +7°C° 0 mm 6 mps 748 mmHg 87%
    02:00 +7°C° 0 mm 6 mps 748 mmHg 88%
    03:00 +5°C° 0 mm 6 mps 748 mmHg 88%
    04:00 +5°C° 0 mm 6 mps 748 mmHg 88%
    05:00 +5°C° 0 mm 6 mps 748 mmHg 88%
    06:00 +5°C° 0 mm 6 mps 748 mmHg 89%
    07:00 +5°C° 0 mm 6 mps 748 mmHg 87%
    08:00 +7°C° 0 mm 6 mps 748 mmHg 85%
    09:00 +7°C° 0 mm 6 mps 748 mmHg 84%
    10:00 +7°C° 0.2 mm 6 mps 748 mmHg 82%
    11:00 +7°C° 0.2 mm 6 mps 748 mmHg 81%
    12:00 +8°C° 0.2 mm 6 mps 748 mmHg 79%
    13:00 +8°C° 0.1 mm 6 mps 748 mmHg 76%
    14:00 +8°C° 0.1 mm 6 mps 748 mmHg 72%
    15:00 +8°C° 0.1 mm 6 mps 748 mmHg 68%
    16:00 +7°C° 0 mm 6 mps 748 mmHg 72%
    17:00 +6°C° 0 mm 5 mps 749 mmHg 76%
    18:00 +5°C° 0 mm 5 mps 749 mmHg 80%
    19:00 +5°C° 0 mm 5 mps 749 mmHg 82%
    20:00 +5°C° 0 mm 5 mps 749 mmHg 83%
    21:00 +5°C° 0 mm 5 mps 750 mmHg 84%
    22:00 +5°C° 0 mm 5 mps 750 mmHg 85%
    23:00 +3°C° 0 mm 5 mps 750 mmHg 85%

    Tomorrow, 19 February, Tuesday

    Time Temperature Precipitation Wind Pressure Humidity
    00:00 +4°C° 0 mm 4 mps 751 mmHg 86%
    01:00 +4°C° 0 mm 4 mps 751 mmHg 87%
    02:00 +4°C° 0 mm 4 mps 751 mmHg 87%
    03:00 +4°C° 0 mm 4 mps 751 mmHg 88%
    04:00 +4°C° 0 mm 3 mps 751 mmHg 87%
    05:00 +3°C° 0 mm 3 mps 751 mmHg 87%
    06:00 +3°C° 0 mm 3 mps 751 mmHg 86%
    07:00 +4°C° 0 mm 3 mps 751 mmHg 84%
    08:00 +4°C° 0 mm 4 mps 752 mmHg 82%
    09:00 +5°C° 0 mm 4 mps 752 mmHg 80%
    10:00 +6°C° 0 mm 5 mps 752 mmHg 77%
    11:00 +7°C° 0 mm 5 mps 752 mmHg 74%
    12:00 +7°C° 0 mm 6 mps 752 mmHg 72%
    13:00 +7°C° 0 mm 6 mps 752 mmHg 72%
    14:00 +8°C° 0 mm 6 mps 751 mmHg 72%
    15:00 +8°C° 0 mm 6 mps 751 mmHg 73%
    16:00 +7°C° 0 mm 6 mps 751 mmHg 76%
    17:00 +7°C° 0 mm 6 mps 751 mmHg 79%
    18:00 +5°C° 0 mm 6 mps 751 mmHg 82%
    19:00 +5°C° 0 mm 6 mps 751 mmHg 83%
    20:00 +5°C° 0 mm 6 mps 751 mmHg 84%
    21:00 +5°C° 0 mm 7 mps 751 mmHg 84%
    22:00 +5°C° 0.1 mm 7 mps 750 mmHg 85%
    23:00 +5°C° 0.1 mm 7 mps 750 mmHg 85%

    Day after tomorrow, 20 February, Wednesday

    Time Temperature Precipitation Wind Pressure Humidity
    00:00 +5°C° 0.1 mm 7 mps 750 mmHg 86%
    01:00 +6°C° 0.1 mm 7 mps 750 mmHg 86%
    02:00 +6°C° 0.1 mm 7 mps 749 mmHg 86%
    03:00 +6°C° 0.1 mm 7 mps 749 mmHg 87%
    04:00 +6°C° 0.1 mm 7 mps 749 mmHg 87%
    05:00 +6°C° 0.1 mm 7 mps 749 mmHg 88%
    06:00 +6°C° 0.1 mm 7 mps 749 mmHg 88%
    07:00 +6°C° 0.1 mm 7 mps 749 mmHg 88%
    08:00 +6°C° 0.1 mm 7 mps 749 mmHg 88%
    09:00 +8°C° 0.1 mm 7 mps 749 mmHg 88%
    10:00 +8°C° 0.3 mm 7 mps 749 mmHg 89%
    11:00 +8°C° 0.3 mm 7 mps 750 mmHg 90%
    12:00 +8°C° 0.3 mm 7 mps 750 mmHg 91%
    13:00 +9°C° 0.1 mm 7 mps 750 mmHg 92%
    14:00 +9°C° 0.1 mm 7 mps 750 mmHg 93%
    15:00 +9°C° 0.1 mm 7 mps 750 mmHg 93%
    16:00 +9°C° 0.1 mm 6 mps 751 mmHg 94%
    17:00 +9°C° 0.1 mm 6 mps 751 mmHg 94%
    18:00 +9°C° 0.1 mm 6 mps 751 mmHg 95%
    19:00 +9°C° 0.1 mm 6 mps 751 mmHg 95%
    20:00 +9°C° 0.1 mm 6 mps 752 mmHg 95%
    21:00 +9°C° 0.1 mm 6 mps 752 mmHg 95%
    22:00 +9°C° 0 mm 6 mps 752 mmHg 95%
    23:00 +9°C° 0 mm 6 mps 753 mmHg 95%

    21 February, Thursday

    Time Temperature Precipitation Wind Pressure Humidity
    00:00 +9°C° 0 mm 5 mps 753 mmHg 95%
    01:00 +9°C° 0.1 mm 5 mps 753 mmHg 95%
    02:00 +9°C° 0.1 mm 5 mps 754 mmHg 95%
    03:00 +9°C° 0.1 mm 5 mps 754 mmHg 95%
    04:00 +10°C° 0 mm 4 mps 754 mmHg 95%
    05:00 +10°C° 0 mm 4 mps 754 mmHg 94%
    06:00 +10°C° 0 mm 4 mps 755 mmHg 94%
    07:00 +10°C° 0 mm 4 mps 755 mmHg 93%
    08:00 +10°C° 0 mm 4 mps 755 mmHg 93%
    09:00 +9°C° 0 mm 5 mps 756 mmHg 92%
    10:00 +10°C° 0 mm 4 mps 756 mmHg 89%
    11:00 +10°C° 0 mm 4 mps 757 mmHg 86%
    12:00 +10°C° 0 mm 4 mps 757 mmHg 83%
    13:00 +11°C° 0 mm 4 mps 757 mmHg 81%
    14:00 +12°C° 0 mm 4 mps 757 mmHg 79%
    15:00 +13°C° 0 mm 5 mps 757 mmHg 78%
    16:00 +12°C° 0 mm 4 mps 757 mmHg 81%
    17:00 +11°C° 0 mm 4 mps 757 mmHg 85%
    18:00 +8°C° 0 mm 4 mps 758 mmHg 89%
    19:00 +8°C° 0 mm 4 mps 758 mmHg 90%
    20:00 +8°C° 0 mm 3 mps 758 mmHg 92%
    21:00 +8°C° 0 mm 3 mps 759 mmHg 93%
    22:00 +8°C° 0 mm 3 mps 759 mmHg 93%
    23:00 +8°C° 0 mm 3 mps 759 mmHg 94%

    22 February, Friday

    Time Temperature Precipitation Wind Pressure Humidity
    00:00 +8°C° 0 mm 3 mps 759 mmHg 94%
    01:00 +7°C° 0 mm 3 mps 759 mmHg 94%
    02:00 +7°C° 0 mm 3 mps 759 mmHg 94%
    03:00 +7°C° 0 mm 3 mps 760 mmHg 94%
    04:00 +7°C° 0 mm 3 mps 760 mmHg 94%
    05:00 +7°C° 0 mm 3 mps 760 mmHg 95%
    06:00 +7°C° 0 mm 3 mps 760 mmHg 95%
    07:00 +8°C° 0 mm 3 mps 761 mmHg 93%
    08:00 +8°C° 0 mm 3 mps 761 mmHg 91%
    09:00 +8°C° 0 mm 4 mps 761 mmHg 89%
    10:00 +10°C° 0 mm 4 mps 762 mmHg 83%
    11:00 +10°C° 0 mm 5 mps 762 mmHg 77%
    12:00 +13°C° 0 mm 6 mps 762 mmHg 72%
    13:00 +13°C° 0 mm 6 mps 761 mmHg 70%
    14:00 +13°C° 0 mm 6 mps 761 mmHg 69%
    15:00 +13°C° 0 mm 6 mps 761 mmHg 68%
    16:00 +12°C° 0 mm 5 mps 761 mmHg 73%
    17:00 +10°C° 0 mm 4 mps 761 mmHg 79%
    18:00 +9°C° 0 mm 3 mps 761 mmHg 85%
    19:00 +8°C° 0 mm 3 mps 761 mmHg 86%
    20:00 +7°C° 0 mm 3 mps 761 mmHg 88%
    21:00 +7°C° 0 mm 3 mps 762 mmHg 89%
    22:00 +7°C° 0 mm 3 mps 762 mmHg 90%
    23:00 +7°C° 0 mm 3 mps 762 mmHg 91%

    23 February, Saturday

    Time Temperature Precipitation Wind Pressure Humidity
    00:00 +5°C° 0 mm 3 mps 762 mmHg 92%
    01:00 +5°C° 0 mm 3 mps 762 mmHg 93%
    02:00 +7°C° 0 mm 3 mps 761 mmHg 93%
    03:00 +7°C° 0 mm 3 mps 761 mmHg 94%
    04:00 +5°C° 0 mm 3 mps 761 mmHg 95%
    05:00 +5°C° 0 mm 3 mps 761 mmHg 95%
    06:00 +5°C° 0 mm 3 mps 761 mmHg 96%
    07:00 +7°C° 0 mm 3 mps 762 mmHg 95%
    08:00 +7°C° 0 mm 3 mps 762 mmHg 94%
    09:00 +8°C° 0 mm 3 mps 762 mmHg 93%
    10:00 +8°C° 0 mm 4 mps 762 mmHg 88%
    11:00 +10°C° 0 mm 4 mps 762 mmHg 83%
    12:00 +11°C° 0 mm 4 mps 762 mmHg 79%
    13:00 +12°C° 0 mm 4 mps 762 mmHg 77%
    14:00 +12°C° 0 mm 4 mps 762 mmHg 76%
    15:00 +13°C° 0 mm 4 mps 762 mmHg 74%
    16:00 +12°C° 0 mm 4 mps 762 mmHg 80%
    17:00 +10°C° 0 mm 3 mps 762 mmHg 85%
    18:00 +9°C° 0 mm 3 mps 762 mmHg 90%
    19:00 +8°C° 0 mm 3 mps 762 mmHg 92%
    20:00 +8°C° 0 mm 3 mps 762 mmHg 93%
    21:00 +7°C° 0 mm 3 mps 762 mmHg 94%
    22:00 +7°C° 0 mm 2 mps 762 mmHg 94%
    23:00 +6°C° 0 mm 2 mps 762 mmHg 94%
    Show more